Regional Weather Roundup
Issued by NWS

Home | Current Version | Previous Version | Graphics & Text | Print | Product List | Glossary On
Versions: 1 2 3 4 5 6 7 8 9 10 11 12 13 14 15 16 17 18 19 20 21 22 23 24 25 26 27 28 29 30 31 32 33 34 35 36 37 38 39 40 41 42 43 44 45 46 47 48 49 50
000
ASUS45 KSLC 230610
RWRUT

UTAH REGIONAL WEATHER ROUNDUP
NATIONAL WEATHER SERVICE SALT LAKE CITY UT
1100 PM MST WED NOV 22 2017

UTZ001>011-023>025-230700-

NORTHERN UTAH

CITY           SKY/WX    TMP DP  RH WIND       PRES   REMARKS
BRIGHAM CITY   PTCLDY    41  38  89 CALM      30.38R
HILL AFB       MOCLDY    51  40  65 SE9       30.37R
LOGAN          PTCLDY    39  36  89 NW3       30.36F
OGDEN          MOCLDY    48  40  73 S9        30.36R
SALT LAKE CITY MOCLDY    49  42  77 SE3       30.36S
TOOELE VALLEY  PTCLDY    41  39  93 E5        30.37S
WENDOVER       PTCLDY    41  35  79 CALM      30.36F
HEBER CITY       N/A     37  34  87 CALM      30.42S
WEST JORDAN    MOCLDY    48  42  80 SW6       30.38S

$$

UTZ011>015-024>027-230700-

CENTRAL/NORTHEAST UTAH

CITY           SKY/WX    TMP DP  RH WIND       PRES   REMARKS
PROVO AIRPORT  PTCLDY    41  38  89 NW7       30.41S
MOAB/CANYONLAN CLOUDY    40  23  50 CALM      30.37F
DELTA          MOCLDY    43  32  65 CALM      30.39S
PRICE          PTCLDY    44  30  57 E8        30.41F
RICHFIELD      CLEAR     36  36 100 CALM      30.46R
ROOSEVELT      CLOUDY    36  30  80 W5        30.42R WCI  32
VERNAL         CLOUDY    40  31  70 CALM      30.41R

$$

UTZ013>016-019>022-027-230700-

SOUTHERN UTAH

CITY           SKY/WX    TMP DP  RH WIND       PRES   REMARKS
BRYCE CANYON   PTCLDY    33  28  81 W10       30.52R WCI  25
CEDAR CITY     PTCLDY    44  30  57 SE8       30.42R
MILFORD        PTCLDY    40  32  73 S3        30.40S
ST GEORGE      PTCLDY    56  32  40 CALM      30.30R
HANKSVILLE     MOCLDY    36  18  48 CALM      30.41S
KANAB          CLEAR     48  30  49 N15       30.42S
BLANDING         N/A     44  31  61 N8        30.46S

$$

REGIONAL REPORTS     COLORADO/ARIZONA

CITY           SKY/WX    TMP DP  RH WIND       PRES   REMARKS
CRAIG, CO      CLOUDY    30  28  92 W5        30.43S WCI  25
GRAND JUNCTION CLOUDY    41  31  67 E5        30.39F
RIFLE, CO      CLOUDY    34  31  88 SE3       30.44F
MONTROSE, CO   CLOUDY    36  31  82 S9        30.45F WCI  29
CORTEZ, CO     CLOUDY    37  28  70 E7        30.38F WCI  32
COLORADO CITY    N/A     50  32  50 NW3       30.40R
PAGE, AZ       CLEAR     48  29  47 CALM      30.36F
GRAND CANYON   PTCLDY    29  21  72 CALM      30.44F
KINGMAN, AZ    CLEAR     54  30  40 CALM      30.26F
FLAGSTAFF, AZ  PTCLDY    38  26  62 VRB3      30.44S

$$

REGIONAL REPORTS    NEVADA/IDAHO/WYOMING

CITY           SKY/WX    TMP DP  RH WIND       PRES   REMARKS
LAS VEGAS, NV  PTCLDY    64  38  38 CALM      30.21R
ELY, NY        CLEAR     37  27  67 S12       30.43F WCI  29
ELKO, NV       MOCLDY    45  40  82 E3        30.35S
POCATELLO, ID  CLOUDY    42  40  92 E5        30.33F
BURLEY, ID     PTCLDY    52  43  71 S9        30.28F
FORT BRIDGER,    N/A     47  37  68 SW16      30.46S
EVANSTON, WY   CLOUDY    44  38  79 SW6       30.45F
ROCK SPRINGS,  CLOUDY    44  36  73 SW12      30.41R
KEMMERER, WY   CLOUDY    39  36  87 NW6       30.45F WCI  35

$$



USA.gov is the U.S. government's official web portal to all federal, state and local government web resources and services.